Time,TemperatureF,DewpointF,PressureIn,WindDirection,WindDirectionDegrees,WindSpeedMPH,WindSpeedGustMPH,Humidity,HourlyPrecipIn,Conditions,Clouds,dailyrainin,SoftwareType,DateUTC
2013-03-25 00:00:00,29.7,24.6,29.73,NE,38,3.0,4.0,81,0.00,,,0.00,Wunderground v.1.15,2013-03-25 04:00:00,
2013-03-25 00:02:00,29.7,24.6,29.73,ENE,63,3.0,6.0,81,0.00,,,0.00,Wunderground v.1.15,2013-03-25 04:02:00,
2013-03-25 00:06:00,29.7,24.6,29.72,NE,46,3.0,6.0,81,0.00,,,0.00,Wunderground v.1.15,2013-03-25 04:06:00,
2013-03-25 00:10:00,29.8,24.4,29.73,NE,46,4.0,6.0,80,0.00,,,0.00,Wunderground v.1.15,2013-03-25 04:10:00,
2013-03-25 00:16:00,29.8,24.4,29.72,ESE,105,3.0,7.0,80,0.00,,,0.00,Wunderground v.1.15,2013-03-25 04:16:00,
2013-03-25 00:22:00,29.8,24.4,29.72,ENE,67,3.0,4.0,80,0.00,,,0.00,Wunderground v.1.15,2013-03-25 04:22:00,
2013-03-25 00:28:00,29.9,24.5,29.72,ENE,73,3.0,4.0,80,0.00,,,0.00,Wunderground v.1.15,2013-03-25 04:28:00,
2013-03-25 00:34:00,29.9,24.5,29.72,ENE,57,3.0,7.0,80,0.00,,,0.00,Wunderground v.1.15,2013-03-25 04:34:00,
2013-03-25 00:39:00,30.0,24.6,29.72,ENE,59,3.0,3.0,80,0.00,,,0.00,Wunderground v.1.15,2013-03-25 04:39:00,
2013-03-25 00:45:00,30.0,24.3,29.72,ENE,72,3.0,7.0,79,0.00,,,0.00,Wunderground v.1.15,2013-03-25 04:45:00,
2013-03-25 00:50:00,30.1,24.4,29.72,East,84,4.0,6.0,79,0.00,,,0.00,Wunderground v.1.15,2013-03-25 04:50:00,
2013-03-25 00:56:00,30.1,24.4,29.71,East,90,3.0,6.0,79,0.00,,,0.00,Wunderground v.1.15,2013-03-25 04:56:00,
2013-03-25 01:02:00,30.2,24.5,29.72,ENE,69,3.0,9.0,79,0.00,,,0.00,Wunderground v.1.15,2013-03-25 05:02:00,
2013-03-25 01:08:00,30.2,24.5,29.72,NE,36,3.0,9.0,79,0.00,,,0.00,Wunderground v.1.15,2013-03-25 05:08:00,
2013-03-25 01:13:00,30.3,24.6,29.72,East,80,4.0,5.0,79,0.00,,,0.00,Wunderground v.1.15,2013-03-25 05:13:00,
2013-03-25 01:19:00,30.3,24.6,29.71,NE,48,4.0,4.0,79,0.00,,,0.00,Wunderground v.1.15,2013-03-25 05:19:00,
2013-03-25 01:25:00,30.4,24.7,29.71,ENE,60,4.0,6.0,79,0.00,,,0.00,Wunderground v.1.15,2013-03-25 05:25:00,
2013-03-25 01:31:00,30.4,24.7,29.71,NE,51,3.0,4.0,79,0.00,,,0.00,Wunderground v.1.15,2013-03-25 05:31:00,
2013-03-25 01:36:00,30.5,24.8,29.71,ENE,71,3.0,9.0,79,0.00,,,0.00,Wunderground v.1.15,2013-03-25 05:36:00,
2013-03-25 01:41:00,30.5,24.8,29.70,East,82,3.0,3.0,79,0.00,,,0.00,Wunderground v.1.15,2013-03-25 05:41:00,
2013-03-25 01:47:00,30.5,24.8,29.70,NE,49,3.0,6.0,79,0.00,,,0.00,Wunderground v.1.15,2013-03-25 05:47:00,
2013-03-25 01:52:00,30.6,24.9,29.70,ENE,57,3.0,6.0,79,0.00,,,0.00,Wunderground v.1.15,2013-03-25 05:52:00,
2013-03-25 01:58:00,30.6,24.9,29.70,East,88,3.0,6.0,79,0.00,,,0.00,Wunderground v.1.15,2013-03-25 05:58:00,
2013-03-25 02:04:00,30.7,24.7,29.71,ENE,60,3.0,6.0,78,0.00,,,0.00,Wunderground v.1.15,2013-03-25 06:04:00,
2013-03-25 02:09:00,30.7,24.7,29.70,NE,41,2.0,2.0,78,0.00,,,0.00,Wunderground v.1.15,2013-03-25 06:09:00,
2013-03-25 02:15:00,30.7,24.7,29.71,ENE,59,2.0,6.0,78,0.00,,,0.00,Wunderground v.1.15,2013-03-25 06:15:00,
2013-03-25 02:20:00,30.7,24.7,29.70,NE,40,3.0,5.0,78,0.00,,,0.00,Wunderground v.1.15,2013-03-25 06:20:00,
2013-03-25 02:26:00,30.7,24.7,29.70,NE,54,4.0,5.0,78,0.00,,,0.00,Wunderground v.1.15,2013-03-25 06:26:00,
2013-03-25 02:32:00,30.7,24.7,29.70,East,88,2.0,5.0,78,0.00,,,0.00,Wunderground v.1.15,2013-03-25 06:32:00,
2013-03-25 02:38:00,30.7,24.7,29.70,ENE,78,2.0,5.0,78,0.00,,,0.00,Wunderground v.1.15,2013-03-25 06:38:00,
2013-03-25 02:44:00,30.6,24.6,29.70,East,98,2.0,5.0,78,0.00,,,0.00,Wunderground v.1.15,2013-03-25 06:44:00,
2013-03-25 02:49:00,30.7,24.7,29.69,ENE,58,3.0,3.0,78,0.00,,,0.00,Wunderground v.1.15,2013-03-25 06:49:00,
2013-03-25 02:55:00,30.7,24.7,29.69,ENE,63,3.0,4.0,78,0.00,,,0.00,Wunderground v.1.15,2013-03-25 06:55:00,
2013-03-25 03:00:00,30.7,24.7,29.69,East,84,3.0,3.0,78,0.00,,,0.00,Wunderground v.1.15,2013-03-25 07:00:00,
2013-03-25 03:06:00,30.7,24.7,29.69,ENE,59,3.0,12.0,78,0.00,,,0.00,Wunderground v.1.15,2013-03-25 07:06:00,
2013-03-25 03:11:00,30.7,24.7,29.69,NE,46,3.0,5.0,78,0.00,,,0.00,Wunderground v.1.15,2013-03-25 07:11:00,
2013-03-25 03:17:00,30.7,24.7,29.69,ESE,123,3.0,5.0,78,0.00,,,0.00,Wunderground v.1.15,2013-03-25 07:17:00,
2013-03-25 03:22:00,30.7,25.0,29.68,ESE,103,3.0,7.0,79,0.00,,,0.00,Wunderground v.1.15,2013-03-25 07:22:00,
2013-03-25 03:28:00,30.8,25.1,29.68,ENE,74,4.0,7.0,79,0.00,,,0.00,Wunderground v.1.15,2013-03-25 07:28:00,
2013-03-25 03:33:00,30.8,25.1,29.68,ENE,73,3.0,5.0,79,0.00,,,0.00,Wunderground v.1.15,2013-03-25 07:33:00,
2013-03-25 03:38:00,30.8,25.1,29.68,ENE,67,3.0,9.0,79,0.00,,,0.00,Wunderground v.1.15,2013-03-25 07:38:00,
2013-03-25 03:43:00,30.9,25.2,29.67,ENE,68,3.0,5.0,79,0.00,,,0.00,Wunderground v.1.15,2013-03-25 07:43:00,
2013-03-25 03:48:00,30.9,25.2,29.67,NE,36,3.0,10.0,79,0.00,,,0.00,Wunderground v.1.15,2013-03-25 07:48:00,
2013-03-25 03:54:00,31.0,25.2,29.67,NNE,24,4.0,9.0,79,0.00,,,0.00,Wunderground v.1.15,2013-03-25 07:54:00,
2013-03-25 03:59:00,31.1,25.0,29.67,ENE,64,4.0,4.0,78,0.00,,,0.00,Wunderground v.1.15,2013-03-25 07:59:00,
2013-03-25 04:04:00,31.1,25.3,29.67,ENE,69,3.0,4.0,79,0.00,,,0.00,Wunderground v.1.15,2013-03-25 08:04:00,
2013-03-25 04:09:00,31.2,25.4,29.67,ENE,59,3.0,3.0,79,0.00,,,0.00,Wunderground v.1.15,2013-03-25 08:09:00,
2013-03-25 04:15:00,31.2,25.1,29.67,SE,125,4.0,9.0,78,0.00,,,0.00,Wunderground v.1.15,2013-03-25 08:15:00,
2013-03-25 04:20:00,31.2,25.1,29.66,East,83,4.0,5.0,78,0.00,,,0.00,Wunderground v.1.15,2013-03-25 08:20:00,
2013-03-25 04:25:00,31.2,25.1,29.66,NE,45,3.0,5.0,78,0.00,,,0.00,Wunderground v.1.15,2013-03-25 08:25:00,
2013-03-25 04:30:00,31.2,25.4,29.66,ENE,70,3.0,5.0,79,0.00,,,0.00,Wunderground v.1.15,2013-03-25 08:30:00,
2013-03-25 04:35:00,31.2,25.4,29.66,ENE,67,3.0,6.0,79,0.00,,,0.00,Wunderground v.1.15,2013-03-25 08:35:00,
2013-03-25 04:41:00,31.2,25.4,29.66,NE,37,4.0,5.0,79,0.00,,,0.00,Wunderground v.1.15,2013-03-25 08:41:00,
2013-03-25 04:47:00,31.2,25.4,29.66,ESE,107,3.0,5.0,79,0.00,,,0.00,Wunderground v.1.15,2013-03-25 08:47:00,
2013-03-25 04:52:00,31.1,25.3,29.66,NE,55,2.0,7.0,79,0.00,,,0.00,Wunderground v.1.15,2013-03-25 08:52:00,
2013-03-25 04:58:00,31.1,25.3,29.66,ENE,71,4.0,7.0,79,0.00,,,0.00,Wunderground v.1.15,2013-03-25 08:58:00,
2013-03-25 05:04:00,31.1,25.3,29.66,NE,36,4.0,5.0,79,0.00,,,0.00,Wunderground v.1.15,2013-03-25 09:04:00,
2013-03-25 05:09:00,31.1,25.3,29.66,SSE,153,4.0,4.0,79,0.00,,,0.00,Wunderground v.1.15,2013-03-25 09:09:00,
2013-03-25 05:15:00,31.1,25.3,29.66,East,99,4.0,6.0,79,0.00,,,0.00,Wunderground v.1.15,2013-03-25 09:15:00,
2013-03-25 05:20:00,31.1,25.3,29.66,NE,45,4.0,4.0,79,0.00,,,0.00,Wunderground v.1.15,2013-03-25 09:20:00,
2013-03-25 05:26:00,31.1,25.3,29.66,NE,34,4.0,7.0,79,0.00,,,0.00,Wunderground v.1.15,2013-03-25 09:26:00,
2013-03-25 05:31:00,31.1,25.0,29.66,ENE,61,4.0,4.0,78,0.00,,,0.00,Wunderground v.1.15,2013-03-25 09:31:00,
2013-03-25 05:37:00,31.0,25.2,29.65,NE,49,3.0,12.0,79,0.00,,,0.00,Wunderground v.1.15,2013-03-25 09:37:00,
2013-03-25 05:43:00,31.0,25.2,29.65,NNE,30,4.0,9.0,79,0.00,,,0.00,Wunderground v.1.15,2013-03-25 09:43:00,
2013-03-25 05:48:00,31.0,25.2,29.65,ENE,59,4.0,9.0,79,0.00,,,0.00,Wunderground v.1.15,2013-03-25 09:48:00,
2013-03-25 05:54:00,30.9,25.2,29.65,SE,136,4.0,9.0,79,0.00,,,0.00,Wunderground v.1.15,2013-03-25 09:54:00,
2013-03-25 05:59:00,30.9,25.2,29.66,ENE,65,3.0,5.0,79,0.00,,,0.00,Wunderground v.1.15,2013-03-25 09:59:00,
2013-03-25 06:05:00,30.9,25.2,29.65,NE,44,4.0,5.0,79,0.00,,,0.00,Wunderground v.1.15,2013-03-25 10:05:00,
2013-03-25 06:10:00,30.9,25.2,29.66,ESE,115,4.0,4.0,79,0.00,,,0.00,Wunderground v.1.15,2013-03-25 10:10:00,
2013-03-25 06:15:00,30.9,25.5,29.65,ENE,59,4.0,7.0,80,0.00,,,0.00,Wunderground v.1.15,2013-03-25 10:15:00,
2013-03-25 06:21:00,30.9,25.5,29.66,ENE,63,5.0,6.0,80,0.00,,,0.00,Wunderground v.1.15,2013-03-25 10:21:00,
2013-03-25 06:27:00,30.9,25.5,29.66,East,92,4.0,6.0,80,0.00,,,0.00,Wunderground v.1.15,2013-03-25 10:27:00,
2013-03-25 06:32:00,30.9,25.5,29.66,East,91,4.0,4.0,80,0.00,,,0.00,Wunderground v.1.15,2013-03-25 10:32:00,
2013-03-25 06:37:00,30.9,25.5,29.66,East,101,3.0,9.0,80,0.00,,,0.00,Wunderground v.1.15,2013-03-25 10:37:00,
2013-03-25 06:43:00,30.9,25.5,29.66,ESE,109,3.0,6.0,80,0.00,,,0.00,Wunderground v.1.15,2013-03-25 10:43:00,
2013-03-25 06:48:00,30.9,25.5,29.66,NE,53,4.0,6.0,80,0.00,,,0.00,Wunderground v.1.15,2013-03-25 10:48:00,
2013-03-25 06:53:00,30.9,25.5,29.66,ENE,65,4.0,6.0,80,0.00,,,0.00,Wunderground v.1.15,2013-03-25 10:53:00,
2013-03-25 06:59:00,30.9,25.5,29.66,ESE,105,5.0,5.0,80,0.00,,,0.00,Wunderground v.1.15,2013-03-25 10:59:00,
2013-03-25 07:04:00,30.9,25.5,29.66,East,88,4.0,7.0,80,0.00,,,0.00,Wunderground v.1.15,2013-03-25 11:04:00,
2013-03-25 07:09:00,30.9,25.5,29.66,SE,142,4.0,4.0,80,0.00,,,0.00,Wunderground v.1.15,2013-03-25 11:09:00,
2013-03-25 07:14:00,30.9,25.2,29.66,SE,127,3.0,4.0,79,0.00,,,0.00,Wunderground v.1.15,2013-03-25 11:14:00,
2013-03-25 07:20:00,30.8,25.1,29.66,NE,45,4.0,7.0,79,0.00,,,0.00,Wunderground v.1.15,2013-03-25 11:20:00,
2013-03-25 07:26:00,30.9,25.2,29.67,NNE,28,5.0,7.0,79,0.00,,,0.00,Wunderground v.1.15,2013-03-25 11:26:00,
2013-03-25 07:31:00,30.9,25.2,29.67,ENE,60,5.0,10.0,79,0.00,,,0.00,Wunderground v.1.15,2013-03-25 11:31:00,
2013-03-25 07:37:00,31.0,25.2,29.67,NNE,31,4.0,10.0,79,0.00,,,0.00,Wunderground v.1.15,2013-03-25 11:37:00,
2013-03-25 07:42:00,31.0,24.9,29.68,ENE,61,4.0,10.0,78,0.00,,,0.00,Wunderground v.1.15,2013-03-25 11:42:00,
2013-03-25 07:48:00,31.1,25.0,29.68,ENE,71,4.0,10.0,78,0.00,,,0.00,Wunderground v.1.15,2013-03-25 11:48:00,
2013-03-25 07:53:00,31.1,25.0,29.68,NE,40,5.0,6.0,78,0.00,,,0.00,Wunderground v.1.15,2013-03-25 11:53:00,
2013-03-25 07:59:00,31.2,25.1,29.68,NE,48,5.0,6.0,78,0.00,,,0.00,Wunderground v.1.15,2013-03-25 11:59:00,
2013-03-25 08:04:00,31.2,25.1,29.67,East,88,4.0,6.0,78,0.00,,,0.00,Wunderground v.1.15,2013-03-25 12:04:00,
2013-03-25 08:10:00,31.3,24.9,29.67,NE,41,4.0,6.0,77,0.00,,,0.00,Wunderground v.1.15,2013-03-25 12:10:00,
2013-03-25 08:16:00,31.3,25.2,29.68,East,81,5.0,7.0,78,0.00,,,0.00,Wunderground v.1.15,2013-03-25 12:16:00,
2013-03-25 08:21:00,31.3,24.9,29.68,NE,52,5.0,8.0,77,0.00,,,0.00,Wunderground v.1.15,2013-03-25 12:21:00,
2013-03-25 08:26:00,31.4,25.0,29.68,East,80,5.0,8.0,77,0.00,,,0.00,Wunderground v.1.15,2013-03-25 12:26:00,
2013-03-25 08:34:00,31.4,25.0,29.68,ENE,67,5.0,9.0,77,0.00,,,0.00,Wunderground v.1.15,2013-03-25 12:34:00,
2013-03-25 08:39:00,31.5,25.1,29.68,ENE,59,5.0,5.0,77,0.00,,,0.00,Wunderground v.1.15,2013-03-25 12:39:00,
2013-03-25 08:44:00,31.5,25.1,29.69,NE,52,5.0,7.0,77,0.00,,,0.00,Wunderground v.1.15,2013-03-25 12:44:00,
2013-03-25 08:49:00,31.6,25.2,29.69,NE,56,5.0,5.0,77,0.00,,,0.00,Wunderground v.1.15,2013-03-25 12:49:00,
2013-03-25 08:54:00,31.6,25.2,29.69,NE,49,5.0,6.0,77,0.00,,,0.00,Wunderground v.1.15,2013-03-25 12:54:00,
2013-03-25 08:59:00,31.7,25.3,29.69,ESE,110,5.0,6.0,77,0.00,,,0.00,Wunderground v.1.15,2013-03-25 12:59:00,
2013-03-25 09:04:00,31.7,25.3,29.69,ENE,57,4.0,6.0,77,0.00,,,0.00,Wunderground v.1.15,2013-03-25 13:04:00,
2013-03-25 09:10:00,31.8,25.1,29.69,ENE,69,5.0,5.0,76,0.00,,,0.00,Wunderground v.1.15,2013-03-25 13:10:00,
2013-03-25 09:15:00,31.9,25.2,29.69,ENE,65,5.0,5.0,76,0.00,,,0.00,Wunderground v.1.15,2013-03-25 13:15:00,
2013-03-25 09:20:00,32.0,25.3,29.69,ENE,59,6.0,13.0,76,0.00,,,0.00,Wunderground v.1.15,2013-03-25 13:20:00,
2013-03-25 09:26:00,32.1,25.4,29.69,ENE,63,6.0,13.0,76,0.00,,,0.00,Wunderground v.1.15,2013-03-25 13:26:00,
2013-03-25 09:34:00,32.3,25.3,29.69,ESE,105,7.0,13.0,75,0.00,,,0.00,Wunderground v.1.15,2013-03-25 13:34:00,
2013-03-25 09:40:00,32.4,25.7,29.69,ENE,75,6.0,6.0,76,0.00,,,0.00,Wunderground v.1.15,2013-03-25 13:40:00,
2013-03-25 09:45:00,32.5,25.5,29.69,ENE,70,5.0,6.0,75,0.00,,,0.00,Wunderground v.1.15,2013-03-25 13:45:00,
2013-03-25 09:51:00,32.6,25.6,29.69,NE,45,5.0,10.0,75,0.00,,,0.00,Wunderground v.1.15,2013-03-25 13:51:00,
2013-03-25 09:57:00,32.8,25.7,29.69,NNE,33,5.0,10.0,75,0.00,,,0.00,Wunderground v.1.15,2013-03-25 13:57:00,
2013-03-25 10:05:00,33.0,25.6,29.70,ENE,65,5.0,9.0,74,0.00,,,0.00,Wunderground v.1.15,2013-03-25 14:05:00,
2013-03-25 10:10:00,33.2,25.8,29.70,SSE,158,6.0,8.0,74,0.00,,,0.00,Wunderground v.1.15,2013-03-25 14:10:00,
2013-03-25 10:15:00,33.3,25.6,29.70,NNE,32,7.0,15.0,73,0.00,,,0.00,Wunderground v.1.15,2013-03-25 14:15:00,
2013-03-25 10:20:00,33.4,25.7,29.70,NE,36,7.0,8.0,73,0.00,,,0.00,Wunderground v.1.15,2013-03-25 14:20:00,
2013-03-25 10:26:00,33.5,25.4,29.71,ENE,65,6.0,10.0,72,0.00,,,0.00,Wunderground v.1.15,2013-03-25 14:26:00,
2013-03-25 10:31:00,33.5,25.4,29.70,North,11,6.0,6.0,72,0.00,,,0.00,Wunderground v.1.15,2013-03-25 14:31:00,
2013-03-25 10:37:00,33.7,25.6,29.71,ENE,72,6.0,8.0,72,0.00,,,0.00,Wunderground v.1.15,2013-03-25 14:37:00,
2013-03-25 10:44:00,33.7,25.6,29.71,ENE,66,6.0,7.0,72,0.00,,,0.00,Wunderground v.1.15,2013-03-25 14:44:00,
2013-03-25 10:49:00,33.9,25.8,29.70,NNE,25,6.0,17.0,72,0.00,,,0.00,Wunderground v.1.15,2013-03-25 14:49:00,
2013-03-25 10:54:00,33.9,25.8,29.70,NE,41,6.0,12.0,72,0.00,,,0.00,Wunderground v.1.15,2013-03-25 14:54:00,
2013-03-25 11:00:00,33.9,25.8,29.71,ESE,111,7.0,11.0,72,0.00,,,0.00,Wunderground v.1.15,2013-03-25 15:00:00,
2013-03-25 11:05:00,33.8,26.1,29.71,SE,129,8.0,11.0,73,0.00,,,0.00,Wunderground v.1.15,2013-03-25 15:05:00,
2013-03-25 11:11:00,33.7,26.3,29.71,ENE,59,7.0,7.0,74,0.00,,,0.00,Wunderground v.1.15,2013-03-25 15:11:00,
2013-03-25 11:17:00,33.6,26.2,29.71,NE,51,6.0,9.0,74,0.00,,,0.00,Wunderground v.1.15,2013-03-25 15:17:00,
2013-03-25 11:23:00,33.7,26.0,29.71,NE,51,7.0,12.0,73,0.00,,,0.00,Wunderground v.1.15,2013-03-25 15:23:00,
2013-03-25 11:29:00,33.8,25.7,29.71,SE,144,8.0,9.0,72,0.00,,,0.00,Wunderground v.1.15,2013-03-25 15:29:00,
2013-03-25 11:34:00,34.0,25.9,29.71,ENE,67,7.0,13.0,72,0.00,,,0.00,Wunderground v.1.15,2013-03-25 15:34:00,
2013-03-25 11:39:00,34.4,26.3,29.72,ESE,110,6.0,6.0,72,0.00,,,0.00,Wunderground v.1.15,2013-03-25 15:39:00,
2013-03-25 11:45:00,34.5,26.1,29.72,ENE,74,5.0,10.0,71,0.00,,,0.00,Wunderground v.1.15,2013-03-25 15:45:00,
2013-03-25 11:51:00,34.7,26.3,29.72,NE,47,6.0,11.0,71,0.00,,,0.00,Wunderground v.1.15,2013-03-25 15:51:00,
2013-03-25 11:57:00,34.6,26.2,29.72,NE,39,7.0,11.0,71,0.00,,,0.00,Wunderground v.1.15,2013-03-25 15:57:00,
2013-03-25 12:03:00,34.9,26.4,29.72,NNE,15,6.0,7.0,71,0.00,,,0.00,Wunderground v.1.15,2013-03-25 16:03:00,
2013-03-25 12:08:00,35.1,26.3,29.72,ENE,71,7.0,12.0,70,0.00,,,0.00,Wunderground v.1.15,2013-03-25 16:08:00,
2013-03-25 12:15:00,35.5,26.7,29.72,NNE,30,7.0,11.0,70,0.00,,,0.00,Wunderground v.1.15,2013-03-25 16:15:00,
2013-03-25 12:20:00,35.5,26.7,29.72,North,5,7.0,10.0,70,0.00,,,0.00,Wunderground v.1.15,2013-03-25 16:20:00,
2013-03-25 12:25:00,35.5,26.7,29.72,NE,47,8.0,10.0,70,0.00,,,0.00,Wunderground v.1.15,2013-03-25 16:25:00,
2013-03-25 12:32:00,35.6,26.4,29.72,NNE,15,8.0,10.0,69,0.00,,,0.00,Wunderground v.1.15,2013-03-25 16:32:00,
2013-03-25 12:37:00,35.6,26.4,29.72,ENE,67,8.0,13.0,69,0.00,,,0.00,Wunderground v.1.15,2013-03-25 16:37:00,
2013-03-25 12:44:00,36.1,26.9,29.72,NNE,32,7.0,7.0,69,0.00,,,0.00,Wunderground v.1.15,2013-03-25 16:44:00,
2013-03-25 12:49:00,36.3,26.4,29.72,NNE,28,8.0,8.0,67,0.00,,,0.00,Wunderground v.1.15,2013-03-25 16:49:00,
2013-03-25 12:55:00,36.4,26.5,29.73,NE,49,8.0,12.0,67,0.00,,,0.00,Wunderground v.1.15,2013-03-25 16:55:00,
2013-03-25 13:00:00,36.5,26.9,29.73,ENE,67,6.0,7.0,68,0.00,,,0.00,Wunderground v.1.15,2013-03-25 17:00:00,
2013-03-25 13:06:00,36.1,26.6,29.73,NNE,19,7.0,12.0,68,0.00,,,0.00,Wunderground v.1.15,2013-03-25 17:06:00,
2013-03-25 13:11:00,35.7,26.5,29.73,ENE,57,9.0,13.0,69,0.00,,,0.00,Wunderground v.1.15,2013-03-25 17:11:00,
2013-03-25 13:16:00,35.6,26.1,29.73,NE,42,9.0,14.0,68,0.00,,,0.00,Wunderground v.1.15,2013-03-25 17:16:00,
2013-03-25 13:23:00,35.6,26.4,29.73,NNE,26,9.0,9.0,69,0.00,,,0.00,Wunderground v.1.15,2013-03-25 17:23:00,
2013-03-25 13:28:00,35.8,26.6,29.73,NNE,30,8.0,9.0,69,0.00,,,0.00,Wunderground v.1.15,2013-03-25 17:28:00,
2013-03-25 13:38:00,35.7,26.5,29.74,NE,36,8.0,12.0,69,0.00,,,0.00,Wunderground v.1.15,2013-03-25 17:38:00,
2013-03-25 13:45:00,35.7,26.5,29.74,NNE,30,6.0,10.0,69,0.00,,,0.00,Wunderground v.1.15,2013-03-25 17:45:00,
2013-03-25 13:51:00,35.8,26.6,29.74,NNE,28,6.0,7.0,69,0.00,,,0.00,Wunderground v.1.15,2013-03-25 17:51:00,
2013-03-25 13:57:00,36.0,26.5,29.74,NNE,28,6.0,11.0,68,0.00,,,0.00,Wunderground v.1.15,2013-03-25 17:57:00,
2013-03-25 14:02:00,36.1,26.6,29.74,North,360,6.0,11.0,68,0.00,,,0.00,Wunderground v.1.15,2013-03-25 18:02:00,
2013-03-25 14:08:00,36.0,26.8,29.74,ENE,77,8.0,11.0,69,0.00,,,0.00,Wunderground v.1.15,2013-03-25 18:08:00,
2013-03-25 14:14:00,35.9,26.7,29.74,NNE,19,9.0,11.0,69,0.00,,,0.00,Wunderground v.1.15,2013-03-25 18:14:00,
2013-03-25 14:19:00,36.1,27.3,29.74,NE,46,8.0,8.0,70,0.00,,,0.00,Wunderground v.1.15,2013-03-25 18:19:00,
2013-03-25 14:24:00,36.3,27.1,29.74,NE,36,8.0,15.0,69,0.00,,,0.00,Wunderground v.1.15,2013-03-25 18:24:00,
2013-03-25 14:30:00,36.8,27.6,29.74,NNE,31,8.0,12.0,69,0.00,,,0.00,Wunderground v.1.15,2013-03-25 18:30:00,
2013-03-25 14:35:00,37.1,27.9,29.74,NE,34,7.0,12.0,69,0.00,,,0.00,Wunderground v.1.15,2013-03-25 18:35:00,
2013-03-25 14:40:00,37.2,28.0,29.74,NNE,30,8.0,10.0,69,0.00,,,0.00,Wunderground v.1.15,2013-03-25 18:40:00,
2013-03-25 14:46:00,37.3,27.7,29.74,ENE,57,7.0,16.0,68,0.00,,,0.00,Wunderground v.1.15,2013-03-25 18:46:00,
2013-03-25 14:51:00,37.4,27.8,29.74,ENE,60,8.0,13.0,68,0.00,,,0.00,Wunderground v.1.15,2013-03-25 18:51:00,
2013-03-25 14:57:00,37.6,28.0,29.75,ENE,64,8.0,13.0,68,0.00,,,0.00,Wunderground v.1.15,2013-03-25 18:57:00,
2013-03-25 15:03:00,37.9,28.3,29.75,NE,49,6.0,7.0,68,0.00,,,0.00,Wunderground v.1.15,2013-03-25 19:03:00,
2013-03-25 15:08:00,38.0,28.0,29.75,NE,39,6.0,8.0,67,0.00,,,0.00,Wunderground v.1.15,2013-03-25 19:08:00,
2013-03-25 15:13:00,37.9,28.3,29.75,NE,53,5.0,13.0,68,0.00,,,0.00,Wunderground v.1.15,2013-03-25 19:13:00,
2013-03-25 15:19:00,37.8,28.9,29.75,NNE,28,7.0,9.0,70,0.00,,,0.00,Wunderground v.1.15,2013-03-25 19:19:00,
2013-03-25 15:25:00,37.3,28.8,29.76,NNE,24,8.0,11.0,71,0.00,,,0.00,Wunderground v.1.15,2013-03-25 19:25:00,
2013-03-25 15:31:00,37.4,28.9,29.76,North,9,6.0,7.0,71,0.00,,,0.00,Wunderground v.1.15,2013-03-25 19:31:00,
2013-03-25 15:36:00,37.4,28.9,29.76,NE,54,6.0,10.0,71,0.00,,,0.00,Wunderground v.1.15,2013-03-25 19:36:00,
2013-03-25 15:42:00,37.0,28.1,29.76,NE,53,7.0,10.0,70,0.00,,,0.00,Wunderground v.1.15,2013-03-25 19:42:00,
2013-03-25 15:47:00,36.8,27.9,29.76,NE,55,8.0,14.0,70,0.00,,,0.00,Wunderground v.1.15,2013-03-25 19:47:00,
2013-03-25 15:52:00,36.8,28.3,29.77,NNE,25,8.0,10.0,71,0.00,,,0.00,Wunderground v.1.15,2013-03-25 19:52:00,
2013-03-25 15:58:00,37.0,28.1,29.77,NE,43,8.0,15.0,70,0.00,,,0.00,Wunderground v.1.15,2013-03-25 19:58:00,
2013-03-25 16:03:00,37.0,28.1,29.77,NE,55,7.0,9.0,70,0.00,,,0.00,Wunderground v.1.15,2013-03-25 20:03:00,
2013-03-25 16:08:00,37.2,28.0,29.77,NE,55,7.0,9.0,69,0.00,,,0.00,Wunderground v.1.15,2013-03-25 20:08:00,
2013-03-25 16:13:00,37.4,28.9,29.77,NE,36,7.0,9.0,71,0.00,,,0.00,Wunderground v.1.15,2013-03-25 20:13:00,
2013-03-25 16:19:00,37.2,29.3,29.77,NNE,27,6.0,6.0,73,0.00,,,0.00,Wunderground v.1.15,2013-03-25 20:19:00,
2013-03-25 16:25:00,36.8,29.0,29.78,NE,37,7.0,10.0,73,0.00,,,0.00,Wunderground v.1.15,2013-03-25 20:25:00,
2013-03-25 16:31:00,36.6,29.4,29.78,NNE,26,7.0,8.0,75,0.00,,,0.00,Wunderground v.1.15,2013-03-25 20:31:00,
2013-03-25 16:37:00,36.3,29.8,29.78,NNE,32,7.0,10.0,77,0.00,,,0.00,Wunderground v.1.15,2013-03-25 20:37:00,
2013-03-25 16:42:00,36.3,30.1,29.79,NNE,17,7.0,10.0,78,0.00,,,0.00,Wunderground v.1.15,2013-03-25 20:42:00,
2013-03-25 16:48:00,36.2,29.7,29.79,NNE,21,7.0,10.0,77,0.00,,,0.00,Wunderground v.1.15,2013-03-25 20:48:00,
2013-03-25 16:53:00,36.3,29.8,29.79,NNE,18,7.0,13.0,77,0.00,,,0.00,Wunderground v.1.15,2013-03-25 20:53:00,
2013-03-25 16:59:00,36.3,29.5,29.79,NE,40,8.0,8.0,76,0.00,,,0.00,Wunderground v.1.15,2013-03-25 20:59:00,
2013-03-25 17:04:00,36.3,29.5,29.80,NNE,29,8.0,13.0,76,0.00,,,0.00,Wunderground v.1.15,2013-03-25 21:04:00,
2013-03-25 17:10:00,36.3,29.5,29.80,NNE,17,7.0,9.0,76,0.00,,,0.00,Wunderground v.1.15,2013-03-25 21:10:00,
2013-03-25 17:15:00,36.3,29.5,29.80,NE,51,7.0,11.0,76,0.00,,,0.00,Wunderground v.1.15,2013-03-25 21:15:00,
2013-03-25 17:21:00,36.3,29.5,29.81,NE,45,7.0,8.0,76,0.00,,,0.00,Wunderground v.1.15,2013-03-25 21:21:00,
2013-03-25 17:26:00,36.4,29.6,29.81,NNE,28,6.0,13.0,76,0.00,,,0.00,Wunderground v.1.15,2013-03-25 21:26:00,
2013-03-25 17:32:00,36.3,29.5,29.81,NNE,26,6.0,9.0,76,0.00,,,0.00,Wunderground v.1.15,2013-03-25 21:32:00,
2013-03-25 17:38:00,36.1,29.6,29.81,ENE,61,6.0,9.0,77,0.00,,,0.00,Wunderground v.1.15,2013-03-25 21:38:00,
2013-03-25 17:43:00,36.0,29.5,29.81,NNE,23,6.0,12.0,77,0.00,,,0.00,Wunderground v.1.15,2013-03-25 21:43:00,
2013-03-25 17:48:00,35.9,29.4,29.82,NE,40,7.0,12.0,77,0.00,,,0.00,Wunderground v.1.15,2013-03-25 21:48:00,
2013-03-25 17:54:00,35.8,29.6,29.82,NE,34,6.0,10.0,78,0.00,,,0.00,Wunderground v.1.15,2013-03-25 21:54:00,
2013-03-25 18:00:00,35.7,29.5,29.82,NNE,20,5.0,10.0,78,0.00,,,0.00,Wunderground v.1.15,2013-03-25 22:00:00,
2013-03-25 18:05:00,35.5,29.3,29.82,NNE,23,6.0,14.0,78,0.00,,,0.00,Wunderground v.1.15,2013-03-25 22:05:00,
2013-03-25 18:11:00,35.5,29.3,29.83,NNE,26,6.0,9.0,78,0.00,,,0.00,Wunderground v.1.15,2013-03-25 22:11:00,
2013-03-25 18:16:00,35.5,29.3,29.83,NNE,31,7.0,11.0,78,0.00,,,0.00,Wunderground v.1.15,2013-03-25 22:16:00,
2013-03-25 18:21:00,35.5,29.3,29.83,NNE,28,7.0,7.0,78,0.00,,,0.00,Wunderground v.1.15,2013-03-25 22:21:00,
2013-03-25 18:27:00,35.5,29.3,29.83,NNE,21,5.0,9.0,78,0.00,,,0.00,Wunderground v.1.15,2013-03-25 22:27:00,
2013-03-25 18:32:00,35.5,29.3,29.84,North,11,5.0,7.0,78,0.00,,,0.00,Wunderground v.1.15,2013-03-25 22:32:00,
2013-03-25 18:38:00,35.5,29.3,29.84,NNE,16,5.0,10.0,78,0.00,,,0.00,Wunderground v.1.15,2013-03-25 22:38:00,
2013-03-25 18:43:00,35.4,29.5,29.85,ENE,57,6.0,9.0,79,0.00,,,0.00,Wunderground v.1.15,2013-03-25 22:43:00,
2013-03-25 18:49:00,35.3,29.4,29.85,North,360,6.0,9.0,79,0.00,,,0.00,Wunderground v.1.15,2013-03-25 22:49:00,
2013-03-25 18:54:00,35.3,29.4,29.85,NNE,32,5.0,9.0,79,0.00,,,0.00,Wunderground v.1.15,2013-03-25 22:54:00,
2013-03-25 19:00:00,35.2,29.6,29.86,NNE,26,5.0,5.0,80,0.00,,,0.00,Wunderground v.1.15,2013-03-25 23:00:00,
2013-03-25 19:06:00,35.1,29.6,29.86,NNE,28,6.0,9.0,80,0.00,,,0.00,Wunderground v.1.15,2013-03-25 23:06:00,
2013-03-25 19:12:00,35.0,29.8,29.86,NNE,33,5.0,6.0,81,0.00,,,0.00,Wunderground v.1.15,2013-03-25 23:12:00,
2013-03-25 19:17:00,34.9,29.7,29.87,NE,39,5.0,10.0,81,0.00,,,0.00,Wunderground v.1.15,2013-03-25 23:17:00,
2013-03-25 19:23:00,34.8,29.6,29.87,NNE,16,5.0,11.0,81,0.00,,,0.00,Wunderground v.1.15,2013-03-25 23:23:00,
2013-03-25 19:29:00,34.7,29.8,29.87,NE,35,5.0,5.0,82,0.00,,,0.00,Wunderground v.1.15,2013-03-25 23:29:00,
2013-03-25 19:34:00,34.6,29.7,29.87,NNE,29,4.0,6.0,82,0.00,,,0.00,Wunderground v.1.15,2013-03-25 23:34:00,
2013-03-25 19:40:00,34.5,29.6,29.88,ENE,71,4.0,4.0,82,0.00,,,0.00,Wunderground v.1.15,2013-03-25 23:40:00,
2013-03-25 19:45:00,34.4,29.5,29.88,NE,35,5.0,10.0,82,0.00,,,0.00,Wunderground v.1.15,2013-03-25 23:45:00,
2013-03-25 19:50:00,34.5,29.6,29.89,ENE,65,5.0,7.0,82,0.00,,,0.00,Wunderground v.1.15,2013-03-25 23:50:00,
2013-03-25 19:56:00,34.4,29.2,29.89,North,9,4.0,7.0,81,0.00,,,0.00,Wunderground v.1.15,2013-03-25 23:56:00,
2013-03-25 20:02:00,34.4,29.2,29.89,NE,43,4.0,5.0,81,0.00,,,0.00,Wunderground v.1.15,2013-03-26 00:02:00,
2013-03-25 20:08:00,34.4,29.2,29.90,NNE,33,4.0,5.0,81,0.00,,,0.00,Wunderground v.1.15,2013-03-26 00:08:00,
2013-03-25 20:13:00,34.5,29.3,29.90,NE,54,4.0,6.0,81,0.00,,,0.00,Wunderground v.1.15,2013-03-26 00:13:00,
2013-03-25 20:18:00,34.4,29.2,29.90,NE,50,3.0,6.0,81,0.00,,,0.00,Wunderground v.1.15,2013-03-26 00:18:00,
2013-03-25 20:24:00,34.4,28.9,29.90,NNE,13,3.0,6.0,80,0.00,,,0.00,Wunderground v.1.15,2013-03-26 00:24:00,
2013-03-25 20:30:00,34.5,29.0,29.91,NNE,28,3.0,5.0,80,0.00,,,0.00,Wunderground v.1.15,2013-03-26 00:30:00,
2013-03-25 20:35:00,34.4,28.9,29.91,NE,34,3.0,5.0,80,0.00,,,0.00,Wunderground v.1.15,2013-03-26 00:35:00,
2013-03-25 20:40:00,34.4,28.9,29.91,NE,56,2.0,3.0,80,0.00,,,0.00,Wunderground v.1.15,2013-03-26 00:40:00,
2013-03-25 20:46:00,34.4,28.9,29.91,NE,36,2.0,4.0,80,0.00,,,0.00,Wunderground v.1.15,2013-03-26 00:46:00,
2013-03-25 20:51:00,34.4,28.9,29.91,NNE,33,2.0,3.0,80,0.00,,,0.00,Wunderground v.1.15,2013-03-26 00:51:00,
2013-03-25 20:57:00,34.4,28.9,29.91,NE,34,3.0,7.0,80,0.00,,,0.00,Wunderground v.1.15,2013-03-26 00:57:00,
2013-03-25 21:02:00,34.6,28.8,29.92,ENE,64,3.0,4.0,79,0.00,,,0.00,Wunderground v.1.15,2013-03-26 01:02:00,
2013-03-25 21:08:00,34.7,28.9,29.92,NE,36,3.0,4.0,79,0.00,,,0.00,Wunderground v.1.15,2013-03-26 01:08:00,
2013-03-25 21:13:00,34.7,28.9,29.92,NE,34,3.0,4.0,79,0.00,,,0.00,Wunderground v.1.15,2013-03-26 01:13:00,
2013-03-25 21:18:00,34.7,28.5,29.93,NE,47,3.0,4.0,78,0.00,,,0.00,Wunderground v.1.15,2013-03-26 01:18:00,
2013-03-25 21:24:00,34.8,28.6,29.93,NE,46,2.0,4.0,78,0.00,,,0.00,Wunderground v.1.15,2013-03-26 01:24:00,
2013-03-25 21:30:00,34.8,28.6,29.93,NE,45,2.0,2.0,78,0.00,,,0.00,Wunderground v.1.15,2013-03-26 01:30:00,
2013-03-25 21:35:00,34.8,28.6,29.93,NE,44,2.0,5.0,78,0.00,,,0.00,Wunderground v.1.15,2013-03-26 01:35:00,
2013-03-25 21:40:00,34.8,28.6,29.93,NE,51,3.0,5.0,78,0.00,,,0.00,Wunderground v.1.15,2013-03-26 01:40:00,
2013-03-25 21:46:00,34.8,28.6,29.93,NE,49,3.0,5.0,78,0.00,,,0.00,Wunderground v.1.15,2013-03-26 01:46:00,
2013-03-25 21:51:00,34.8,28.3,29.93,NNE,29,2.0,3.0,77,0.00,,,0.00,Wunderground v.1.15,2013-03-26 01:51:00,
2013-03-25 21:57:00,34.8,28.6,29.94,NNE,29,2.0,3.0,78,0.00,,,0.00,Wunderground v.1.15,2013-03-26 01:57:00,
2013-03-25 22:02:00,34.6,28.4,29.94,NNE,29,2.0,3.0,78,0.00,,,0.00,Wunderground v.1.15,2013-03-26 02:02:00,
2013-03-25 22:08:00,34.4,28.6,29.94,NNE,29,2.0,3.0,79,0.00,,,0.00,Wunderground v.1.15,2013-03-26 02:08:00,
2013-03-25 22:13:00,34.4,28.6,29.94,NE,44,2.0,3.0,79,0.00,,,0.00,Wunderground v.1.15,2013-03-26 02:13:00,
2013-03-25 22:18:00,34.4,28.6,29.95,NE,44,2.0,3.0,79,0.00,,,0.00,Wunderground v.1.15,2013-03-26 02:18:00,
2013-03-25 22:24:00,34.4,28.6,29.95,NNE,31,2.0,5.0,79,0.00,,,0.00,Wunderground v.1.15,2013-03-26 02:24:00,
2013-03-25 22:30:00,34.4,28.6,29.95,NNE,26,3.0,7.0,79,0.00,,,0.00,Wunderground v.1.15,2013-03-26 02:30:00,
2013-03-25 22:35:00,34.4,28.6,29.95,NNE,25,3.0,7.0,79,0.00,,,0.00,Wunderground v.1.15,2013-03-26 02:35:00,
2013-03-25 22:40:00,34.4,28.6,29.95,NNE,14,3.0,6.0,79,0.00,,,0.00,Wunderground v.1.15,2013-03-26 02:40:00,
2013-03-25 22:46:00,34.4,28.2,29.95,NNE,19,3.0,6.0,78,0.00,,,0.00,Wunderground v.1.15,2013-03-26 02:46:00,
2013-03-25 22:51:00,34.4,28.2,29.95,North,360,3.0,4.0,78,0.00,,,0.00,Wunderground v.1.15,2013-03-26 02:51:00,
2013-03-25 22:56:00,34.4,28.2,29.96,North,360,2.0,4.0,78,0.00,,,0.00,Wunderground v.1.15,2013-03-26 02:56:00,
2013-03-25 23:02:00,34.4,28.2,29.96,North,9,3.0,5.0,78,0.00,,,0.00,Wunderground v.1.15,2013-03-26 03:02:00,
2013-03-25 23:08:00,34.4,28.2,29.95,North,355,3.0,5.0,78,0.00,,,0.00,Wunderground v.1.15,2013-03-26 03:08:00,
2013-03-25 23:14:00,34.4,28.2,29.96,NNE,17,2.0,4.0,78,0.00,,,0.00,Wunderground v.1.15,2013-03-26 03:14:00,
2013-03-25 23:19:00,34.4,28.2,29.96,NNE,15,2.0,2.0,78,0.00,,,0.00,Wunderground v.1.15,2013-03-26 03:19:00,
2013-03-25 23:24:00,34.4,28.2,29.96,NNW,333,2.0,3.0,78,0.00,,,0.00,Wunderground v.1.15,2013-03-26 03:24:00,
2013-03-25 23:30:00,34.3,28.2,29.96,North,355,2.0,6.0,78,0.00,,,0.00,Wunderground v.1.15,2013-03-26 03:30:00,
2013-03-25 23:35:00,34.3,28.2,29.97,North,355,3.0,6.0,78,0.00,,,0.00,Wunderground v.1.15,2013-03-26 03:35:00,
2013-03-25 23:41:00,34.2,28.1,29.97,North,355,2.0,5.0,78,0.00,,,0.00,Wunderground v.1.15,2013-03-26 03:41:00,
2013-03-25 23:46:00,34.1,28.3,29.97,NNE,13,3.0,5.0,79,0.00,,,0.00,Wunderground v.1.15,2013-03-26 03:46:00,
2013-03-25 23:51:00,34.1,28.3,29.97,NNE,13,3.0,3.0,79,0.00,,,0.00,Wunderground v.1.15,2013-03-26 03:51:00,
2013-03-25 23:57:00,33.9,28.4,29.97,NNW,341,3.0,4.0,80,0.00,,,0.00,Wunderground v.1.15,2013-03-26 03:57:00,